H1 CPF 2 NER 2023 8 31 9 243 01 glonass134 H2 1407501 9134 40315 2023 8 31 0 0 0 2023 9 3 23 45 0 900 1 1 0 0 0 1 H9 10 0 60187 0.00000 0 2864359.493 22154624.800 -12215807.734 10 0 60187 900.00000 0 2220195.859 20610781.392 -14784767.112 10 0 60187 1800.00000 0 1325221.538 18853728.758 -17064993.662 10 0 60187 2700.00000 0 169048.630 16944031.193 -19012060.264 10 0 60187 3600.00000 0 -1246588.613 14945159.323 -20588105.945 10 0 60187 4500.00000 0 -2907660.951 12920901.022 -21762573.266 10 0 60187 5400.00000 0 -4788199.530 10932782.089 -22512796.163 10 0 60187 6300.00000 0 -6851164.090 9037605.808 -22824427.527 10 0 60187 7200.00000 0 -9049786.659 7285214.727 -22691699.445 10 0 60187 8100.00000 0 -11329333.393 5716567.637 -22117512.678 10 0 60187 9000.00000 0 -13629209.836 4362210.680 -21113355.451 10 0 60187 9900.00000 0 -15885320.763 3241204.224 -19699055.047 10 0 60187 10800.00000 0 -18032585.677 2360547.500 -17902368.857 10 0 60187 11700.00000 0 -20007505.054 1715121.795 -15758424.426 10 0 60187 12600.00000 0 -21750670.872 1288151.270 -13309020.766 10 0 60187 13500.00000 0 -23209117.869 1052158.870 -10601805.482 10 0 60187 14400.00000 0 -24338419.025 970374.458 -7689344.332 10 0 60187 15300.00000 0 -25104439.754 998533.854 -4628101.565 10 0 60187 16200.00000 0 -25484679.701 1086991.655 -1477350.700 10 0 60187 17100.00000 0 -25469148.196 1183058.210 1701963.617 10 0 60187 18000.00000 0 -25060738.673 1233462.323 4848391.382 10 0 60187 18900.00000 0 -24275087.945 1186836.485 7901149.151 10 0 60187 19800.00000 0 -23139927.139 996120.903 10801276.766 10 0 60187 20700.00000 0 -21693951.759 620786.178 13492758.007 10 0 60187 21600.00000 0 -19985257.709 28782.082 15923585.112 10 0 60187 22500.00000 0 -18069407.542 -801868.834 18046748.244 10 0 60187 23400.00000 0 -16007206.059 -1881899.651 19821132.243 10 0 60187 24300.00000 0 -13862276.027 -3210099.207 21212304.641 10 0 60187 25200.00000 0 -11698532.866 -4773114.663 22193180.661 10 0 60187 26100.00000 0 -9577661.327 -6545766.838 22744552.795 10 0 60187 27000.00000 0 -7556697.312 -8491867.887 22855474.656 10 0 60187 27900.00000 0 -5685814.015 -10565510.384 22523491.075 10 0 60187 28800.00000 0 -4006403.691 -12712777.375 21754708.735 10 0 60187 29700.00000 0 -2549534.681 -14873805.320 20563704.262 10 0 60187 30600.00000 0 -1334848.371 -16985116.775 18973269.454 10 0 60187 31500.00000 0 -369943.034 -18982127.603 17013996.234 10 0 60187 32400.00000 0 349728.512 -20801725.382 14723707.035 10 0 60187 33300.00000 0 840441.842 -22384811.604 12146739.499 10 0 60187 34200.00000 0 1129280.778 -23678700.675 9333097.657 10 0 60187 35100.00000 0 1252752.094 -24639273.764 6337484.909 10 0 60187 36000.00000 0 1254993.261 -25232795.101 3218237.130 10 0 60187 36900.00000 0 1185649.386 -25437312.004 36176.999 10 0 60187 37800.00000 0 1097510.396 -25243577.355 -3146587.115 10 0 60187 38700.00000 0 1044010.439 -24655453.586 -6267892.675 10 0 60187 39600.00000 0 1076697.967 -23689779.583 -9266758.713 10 0 60187 40500.00000 0 1242786.582 -22375705.322 -12084599.323 10 0 60187 41400.00000 0 1582893.362 -20753522.240 -14666388.880 10 0 60187 42300.00000 0 2129063.238 -18873039.362 -16961754.021 10 0 60187 43200.00000 0 2903165.365 -16791574.908 -18925969.376 10 0 60187 44100.00000 0 3915731.024 -14571649.556 -20520836.422 10 0 60187 45000.00000 0 5165283.144 -12278480.136 -21715427.785 10 0 60187 45900.00000 0 6638186.052 -9977380.532 -22486682.590 10 0 60187 46800.00000 0 8309021.445 -7731179.895 -22819842.012 10 0 60187 47700.00000 0 10141474.006 -5597766.744 -22708717.749 10 0 60187 48600.00000 0 12089688.355 -3627861.356 -22155789.833 10 0 60187 49500.00000 0 14100039.295 -1863108.311 -21172133.664 10 0 60187 50400.00000 0 16113240.126 -334566.953 -19777179.617 10 0 60187 51300.00000 0 18066700.031 938339.926 -17998311.677 10 0 60187 52200.00000 0 19897031.641 1948378.418 -15870314.555 10 0 60187 53100.00000 0 21542604.085 2700537.166 -13434681.391 10 0 60187 54000.00000 0 22946035.551 3211544.429 -10738796.512 10 0 60187 54900.00000 0 24056522.365 3508891.937 -7835009.787 10 0 60187 55800.00000 0 24831908.787 3629409.169 -4779620.827 10 0 60187 56700.00000 0 25240412.851 3617449.972 -1631792.675 10 0 60187 57600.00000 0 25261937.975 3522769.038 1547584.442 10 0 60187 58500.00000 0 24888917.270 3398178.120 4697058.003 10 0 60187 59400.00000 0 24126656.720 3297080.490 7755785.276 10 0 60187 60300.00000 0 22993163.900 3270986.782 10664691.239 10 0 60187 61200.00000 0 21518469.766 3367115.748 13367591.406 10 0 60187 62100.00000 0 19743471.606 3626179.820 15812259.502 10 0 60187 63000.00000 0 17718344.484 4080447.631 17951420.958 10 0 60187 63900.00000 0 15500585.877 4752164.373 19743654.538 10 0 60187 64800.00000 0 13152772.987 5652396.317 21154185.970 10 0 60187 65700.00000 0 10740123.734 6780348.723 22155559.215 10 0 60187 66600.00000 0 8327960.538 8123187.210 22728172.883 10 0 60187 67500.00000 0 5979180.087 9656372.307 22860671.394 10 0 60187 68400.00000 0 3751832.368 11344495.994 22550182.725 10 0 60187 69300.00000 0 1696908.286 13142588.433 21802396.933 10 0 60187 70200.00000 0 -143572.889 14997843.524 20631482.247 10 0 60187 71100.00000 0 -1738096.685 16851694.227 19059838.262 10 0 60187 72000.00000 0 -3066742.794 18642153.371 17117688.651 10 0 60187 72900.00000 0 -4121784.207 20306323.806 14842518.980 10 0 60187 73800.00000 0 -4907769.849 21782973.653 12278368.300 10 0 60187 74700.00000 0 -5441086.050 23015068.510 9474986.529 10 0 60187 75600.00000 0 -5749014.298 23952153.316 6486872.790 10 0 60187 76500.00000 0 -5868324.463 24552481.900 3372212.887 10 0 60187 77400.00000 0 -5843462.953 24784802.270 191736.889 10 0 60187 78300.00000 0 -5724413.253 24629719.856 -2992479.924 10 0 60187 79200.00000 0 -5564320.938 24080578.780 -6118247.768 10 0 60187 80100.00000 0 -5416985.987 23143821.887 -9124498.568 10 0 60187 81000.00000 0 -5334331.289 21838812.910 -11952501.203 10 0 60187 81900.00000 0 -5363957.499 20197127.545 -14547029.710 10 0 60187 82800.00000 0 -5546890.626 18261343.427 -16857459.413 10 0 60187 83700.00000 0 -5915620.160 16083380.702 -18838767.865 10 0 60187 84600.00000 0 -6492512.700 13722464.317 -20452419.850 10 0 60187 85500.00000 0 -7288669.324 11242795.192 -21667118.594 10 0 60188 0.00000 0 -8303275.361 8711029.764 -22459408.598 10 0 60188 900.00000 0 -9523470.373 6193673.400 -22814119.394 10 0 60188 1800.00000 0 -10924741.640 3754500.874 -22724641.817 10 0 60188 2700.00000 0 -12471825.255 1452107.239 -22193034.441 10 0 60188 3600.00000 0 -14120074.300 -662306.060 -21229958.762 10 0 60188 4500.00000 0 -15817235.844 -2546820.368 -19854446.802 10 0 60188 5400.00000 0 -17505561.056 -4170287.617 -18093507.363 10 0 60188 6300.00000 0 -19124159.223 -5513357.607 -15981580.254 10 0 60188 7200.00000 0 -20611496.800 -6569005.220 -13559850.451 10 0 60188 8100.00000 0 -21907937.064 -7342539.034 -10875436.570 10 0 60188 9000.00000 0 -22958214.791 -7851094.391 -7980470.069 10 0 60188 9900.00000 0 -23713743.508 -8122635.178 -4931083.385 10 0 60188 10800.00000 0 -24134660.222 -8194508.696 -1786326.563 10 0 60188 11700.00000 0 -24191523.700 -8111616.089 1392967.078 10 0 60188 12600.00000 0 -23866596.794 -7924276.246 4545344.954 10 0 60188 13500.00000 0 -23154660.621 -7685873.316 7609907.456 10 0 60188 14400.00000 0 -22063327.498 -7450386.422 10527467.035 10 0 60188 15300.00000 0 -20612840.086 -7269904.674 13241673.189 10 0 60188 16200.00000 0 -18835364.941 -7192230.868 15700083.221 10 0 60188 17100.00000 0 -16773809.135 -7258673.470 17855159.717 10 0 60188 18000.00000 0 -14480207.801 -7502118.745 19665176.970 10 0 60188 18900.00000 0 -12013747.726 -7945463.450 21095020.166 10 0 60188 19800.00000 0 -9438506.803 -8600473.993 22116862.893 10 0 60188 20700.00000 0 -6821000.729 -9467120.722 22710710.365 10 0 60188 21600.00000 0 -4227636.310 -10533416.828 22864797.892 10 0 60188 22500.00000 0 -1722174.829 -11775770.872 22575836.299 10 0 60188 23400.00000 0 636690.942 -13159840.948 21849098.361 10 0 60188 24300.00000 0 2797546.644 -14641857.765 20698342.940 10 0 60188 25200.00000 0 4718161.796 -16170364.289 19145576.137 10 0 60188 26100.00000 0 6367011.308 -17688301.777 17220651.819 10 0 60188 27000.00000 0 7724348.910 -19135356.862 14960716.836 10 0 60188 27900.00000 0 8782786.570 -20450472.515 12409509.525 10 0 60188 28800.00000 0 9547354.366 -21574417.752 9616523.309 10 0 60188 29700.00000 0 10035037.189 -22452307.415 6636050.416 10 0 60188 30600.00000 0 10273806.931 -23035964.431 3526123.773 10 0 60188 31500.00000 0 10301190.726 -23286022.815 347377.911 10 0 60188 32400.00000 0 10162436.095 -23173680.114 -2838147.958 10 0 60188 33300.00000 0 9908351.764 -22682022.618 -5968239.771 10 0 60188 34200.00000 0 9592917.389 -21806864.896 -8981745.248 10 0 60188 35100.00000 0 9270765.799 -20557066.206 -11819790.817 10 0 60188 36000.00000 0 8994647.137 -18954309.077 -14426952.763 10 0 60188 36900.00000 0 8812985.079 -17032348.833 -16752357.437 10 0 60188 37800.00000 0 8767631.117 -14835765.870 -18750687.349 10 0 60188 38700.00000 0 8891914.020 -12418273.938 -20383072.236 10 0 60188 39600.00000 0 9209068.352 -9840656.810 -21617847.129 10 0 60188 40500.00000 0 9731109.077 -7168421.222 -22431162.729 10 0 60188 41400.00000 0 10458199.680 -4469265.713 -22807436.842 10 0 60188 42300.00000 0 11378539.687 -1810472.160 -22739639.318 10 0 60188 43200.00000 0 12468775.066 743670.676 -22229406.497 10 0 60188 44100.00000 0 13694912.694 3134304.491 -21286984.766 10 0 60188 45000.00000 0 15013698.801 5310199.115 -19931006.201 10 0 60188 45900.00000 0 16374401.962 7229620.874 -18188102.497 10 0 60188 46800.00000 0 17720924.554 8861796.327 -16092366.324 10 0 60188 47700.00000 0 18994153.307 10187913.409 -13684671.987 10 0 60188 48600.00000 0 20134450.016 11201621.589 -11011869.632 10 0 60188 49500.00000 0 21084178.271 11909013.598 -8125869.339 10 0 60188 50400.00000 0 21790160.923 12328092.703 -5082633.250 10 0 60188 51300.00000 0 22205966.434 12487750.691 -1941095.196 10 0 60188 52200.00000 0 22293929.615 12426301.597 1237971.613 10 0 60188 53100.00000 0 22026823.555 12189634.231 4393117.627 10 0 60188 54000.00000 0 21389114.013 11829061.803 7463389.255 10 0 60188 54900.00000 0 20377744.815 11398959.027 10389489.045 10 0 60188 55800.00000 0 19002421.933 10954285.398 13114902.772 10 0 60188 56700.00000 0 17285384.350 10548097.698 15586973.251 10 0 60188 57600.00000 0 15260670.537 10229154.968 17757901.795 10 0 60188 58500.00000 0 12972909.760 10039715.355 19585659.439 10 0 60188 59400.00000 0 10475686.560 10013616.299 21034791.698 10 0 60188 60300.00000 0 7829543.959 10174718.188 22077102.304 10 0 60188 61200.00000 0 5099705.655 10535776.847 22692203.248 10 0 60188 62100.00000 0 2353608.983 11097793.041 22867920.529 10 0 60188 63000.00000 0 -341651.621 11849867.822 22600547.222 10 0 60188 63900.00000 0 -2921866.719 12769571.985 21894937.818 10 0 60188 64800.00000 0 -5328135.693 13823816.807 20764440.360 10 0 60188 65700.00000 0 -7509072.537 14970192.354 19230665.604 10 0 60188 66600.00000 0 -9422702.084 16158719.949 17323095.354 10 0 60188 67500.00000 0 -11037967.261 17333947.483 15078535.172 10 0 60188 68400.00000 0 -12335783.524 18437301.190 12540419.861 10 0 60188 69300.00000 0 -13309595.072 19409595.657 9757983.367 10 0 60188 70200.00000 0 -13965408.255 20193596.211 6785307.976 10 0 60188 71100.00000 0 -14321299.632 20736524.505 3680270.688 10 0 60188 72000.00000 0 -14406418.740 20992399.641 503407.501 10 0 60188 72900.00000 0 -14259527.605 20924113.432 -2683281.334 10 0 60188 73800.00000 0 -13927139.371 20505149.342 -5817560.224 10 0 60188 74700.00000 0 -13461336.194 19720869.660 -8838195.236 10 0 60188 75600.00000 0 -12917360.803 18569314.089 -11686172.674 10 0 60188 76500.00000 0 -12351086.160 17061474.105 -14305873.094 10 0 60188 77400.00000 0 -11816473.023 15221030.367 -16646175.579 10 0 60188 78300.00000 0 -11363125.565 13083563.789 -18661468.932 10 0 60188 79200.00000 0 -11034050.627 10695273.774 -20312548.818 10 0 60188 80100.00000 0 -10863716.923 8111258.288 -21567382.679 10 0 60188 81000.00000 0 -10876497.013 5393429.114 -22401727.589 10 0 60188 81900.00000 0 -11085557.838 2608150.787 -22799589.653 10 0 60188 82800.00000 0 -11492245.930 -176296.954 -22753517.157 10 0 60188 83700.00000 0 -12085991.848 -2892326.619 -22264723.358 10 0 60188 84600.00000 0 -12844736.157 -5475611.556 -21343038.313 10 0 60188 85500.00000 0 -13735857.031 -7867509.256 -20006692.582 10 0 60189 0.00000 0 -14717558.457 -10017239.685 -18281939.023 10 0 60189 900.00000 0 -15740659.503 -11883731.157 -16202520.683 10 0 60189 1800.00000 0 -16750706.795 -13437056.671 -13808998.944 10 0 60189 2700.00000 0 -17690322.380 -14659407.817 -11147952.958 10 0 60189 3600.00000 0 -18501686.789 -15545565.951 -8271068.854 10 0 60189 4500.00000 0 -19129053.779 -16102855.429 -5234135.889 10 0 60189 5400.00000 0 -19521191.817 -16350583.613 -2095969.153 10 0 60189 6300.00000 0 -19633650.906 -16318993.604 1082720.726 10 0 60189 7200.00000 0 -19430760.854 -16047775.435 4240489.635 10 0 60189 8100.00000 0 -18887278.474 -15584199.279 7316332.329 10 0 60189 9000.00000 0 -17989615.661 -14980949.405 10250843.702 10 0 60189 9900.00000 0 -16736597.624 -14293749.463 12987347.943 10 0 60189 10800.00000 0 -15139719.630 -13578877.914 15472975.385 10 0 60189 11700.00000 0 -13222890.979 -12890676.647 17659667.875 10 0 60189 12600.00000 0 -11021675.677 -12279155.893 19505094.760 10 0 60189 13500.00000 0 -8582059.527 -11787794.609 20973463.159 10 0 60189 14400.00000 0 -5958792.489 -11451627.542 22036207.909 10 0 60189 15300.00000 0 -3213372.388 -11295698.667 22672548.388 10 0 60189 16200.00000 0 -411750.689 -11333946.001 22869901.557 10 0 60189 17100.00000 0 2378147.392 -11568565.347 22624142.686 10 0 60189 18000.00000 0 5088988.117 -11989881.221 21939707.603 10 0 60189 18900.00000 0 7656575.450 -12576732.413 20829532.862 10 0 60189 19800.00000 0 10022273.917 -13297358.482 19314832.907 10 0 60189 20700.00000 0 12135208.002 -14110752.447 17424716.215 10 0 60189 21600.00000 0 13954146.380 -14968425.147 15195645.481 10 0 60189 22500.00000 0 15448991.658 -15816508.836 12670750.050 10 0 60189 23400.00000 0 16601812.085 -16598112.524 9899002.125 10 0 60189 24300.00000 0 17407370.598 -17255829.911 6934271.423 10 0 60189 25200.00000 0 17873127.589 -17734293.361 3834276.083 10 0 60189 26100.00000 0 18018716.223 -17982664.379 659450.392 10 0 60189 27000.00000 0 17874911.845 -17956952.998 -2528247.688 10 0 60189 27900.00000 0 17482139.207 -17622065.234 -5666564.402 10 0 60189 28800.00000 0 16888581.431 -16953489.047 -8694187.463 10 0 60189 29700.00000 0 16147972.344 -15938544.761 -11551966.180 10 0 60189 30600.00000 0 15317167.692 -14577144.733 -14184088.274 10 0 60189 31500.00000 0 14453600.494 -12882028.468 -16539188.131 10 0 60189 32400.00000 0 13612730.649 -10878462.272 -18571363.066 10 0 60189 33300.00000 0 12845598.876 -8603415.807 -20241076.458 10 0 60189 34200.00000 0 12196590.081 -6104250.582 -21515929.490 10 0 60189 35100.00000 0 11701501.617 -3436976.260 -22371286.441 10 0 60189 36000.00000 0 11385998.142 -664148.905 -22790742.016 10 0 60189 36900.00000 0 11264517.644 2147499.801 -22766422.723 10 0 60189 37800.00000 0 11339673.399 4929602.554 -22299118.013 10 0 60189 38700.00000 0 11602175.157 7614759.320 -21398240.426 10 0 60189 39600.00000 0 12031270.645 10139094.849 -20081617.394 10 0 60189 40500.00000 0 12595686.489 12444665.241 -18375120.609 10 0 60189 41400.00000 0 13255026.731 14481614.953 -16312141.792 10 0 60189 42300.00000 0 13961568.260 16209996.606 -13932926.514 10 0 60189 43200.00000 0 14662376.193 17601180.530 -11283780.058 10 0 60189 44100.00000 0 15301649.438 18638798.260 -8416161.505 10 0 60189 45000.00000 0 15823197.502 19319183.743 -5385683.994 10 0 60189 45900.00000 0 16172944.718 19651296.792 -2251040.542 10 0 60189 46800.00000 0 16301357.359 19656134.624 927124.118 10 0 60189 47700.00000 0 16165692.687 19365658.211 4087374.512 10 0 60189 48600.00000 0 15731976.610 18821279.827 7168656.745 10 0 60189 49500.00000 0 14976628.051 18071975.886 10111460.773 10 0 60189 50400.00000 0 13887662.623 17172104.131 12858951.590 10 0 60189 51300.00000 0 12465425.545 16179016.019 15358049.066 10 0 60189 52200.00000 0 10722822.734 15150563.194 17560437.237 10 0 60189 53100.00000 0 8685039.465 14142601.098 19423485.059 10 0 60189 54000.00000 0 6388756.562 13206592.704 20911062.205 10 0 60189 54900.00000 0 3880894.419 12387411.364 21994235.210 10 0 60189 55800.00000 0 1216934.267 11721433.723 22651831.103 10 0 60189 56700.00000 0 -1541116.681 11235002.063 22870857.696 10 0 60189 57600.00000 0 -4327034.906 10943320.602 22646771.946 10 0 60189 58500.00000 0 -7072872.117 10849832.852 21983590.100 10 0 60189 59400.00000 0 -9711527.743 10946107.534 20893835.860 10 0 60189 60300.00000 0 -12179297.381 11212239.791 19398325.548 10 0 60189 61200.00000 0 -14418292.293 11617753.016 17525792.082 10 0 60189 62100.00000 0 -16378629.496 12122965.513 15312352.675 10 0 60189 63000.00000 0 -18020300.600 12680766.357 12800828.313 10 0 60189 63900.00000 0 -19314640.162 13238726.876 10039926.339 10 0 60189 64800.00000 0 -20245330.579 13741459.186 7083300.701 10 0 60189 65700.00000 0 -20808899.712 14133121.805 3988507.457 10 0 60189 66600.00000 0 -21014688.847 14359965.114 815876.036 10 0 60189 67500.00000 0 -20884291.330 14372806.961 -2372680.910 10 0 60189 68400.00000 0 -20450485.097 14129330.952 -5514894.330 10 0 60189 69300.00000 0 -19755704.563 13596107.214 -8549376.251 10 0 60189 70200.00000 0 -18850117.501 12750247.117 -11416841.420 10 0 60189 71100.00000 0 -17789389.952 11580619.289 -14061286.876 10 0 60189 72000.00000 0 -16632235.850 10088573.359 -16431104.141 10 0 60189 72900.00000 0 -15437857.302 8288139.371 -18480100.489 10 0 60189 73800.00000 0 -14263385.892 6205693.680 -20168408.057 10 0 60189 74700.00000 0 -13161434.922 3879105.351 -21463262.373 10 0 60189 75600.00000 0 -12177867.061 1356399.356 -22339635.101 10 0 60189 76500.00000 0 -11349871.946 -1306006.458 -22780709.293 10 0 60189 77400.00000 0 -10704434.337 -4045415.850 -22778189.020 10 0 60189 78300.00000 0 -10257256.051 -6795230.755 -22332438.882 10 0 60189 79200.00000 0 -10012175.175 -9487490.186 -21452452.496 10 0 60189 80100.00000 0 -9961104.562 -12055465.389 -20155652.435 10 0 60189 81000.00000 0 -10084489.542 -14436203.607 -18467527.381 10 0 60189 81900.00000 0 -10352262.941 -16572915.598 -16421115.184 10 0 60189 82800.00000 0 -10725254.783 -18417109.162 -14056343.342 10 0 60189 83700.00000 0 -11156995.335 -19930382.047 -11419240.806 10 0 60189 84600.00000 0 -11595834.191 -21085802.164 -8561037.130 10 0 60189 85500.00000 0 -11987285.331 -21868820.343 -5537166.904 10 0 60190 0.00000 0 -12276499.250 -22277680.374 -2406199.022 10 0 60190 900.00000 0 -12410758.584 -22323311.953 771290.480 10 0 60190 1800.00000 0 -12341892.618 -22028712.768 3933876.637 10 0 60190 2700.00000 0 -12028510.700 -21427847.898 7020458.961 10 0 60190 3600.00000 0 -11437961.299 -20564112.949 9971424.464 10 0 60190 4500.00000 0 -10547935.549 -19488425.755 12729780.860 10 0 60190 5400.00000 0 -9347648.463 -18257026.041 15242239.391 10 0 60190 6300.00000 0 -7838548.303 -16929074.097 17460227.995 10 0 60190 7200.00000 0 -6034523.707 -15564147.485 19340816.784 10 0 60190 8100.00000 0 -3961598.477 -14219738.800 20847539.335 10 0 60190 9000.00000 0 -1657124.604 -12948857.435 21951095.014 10 0 60190 9900.00000 0 831495.587 -11797834.131 22629919.357 10 0 60190 10800.00000 0 3448508.143 -10804419.089 22870611.624 10 0 60190 11700.00000 0 6131859.765 -9996252.638 22668210.790 10 0 60190 12600.00000 0 8815521.610 -9389772.644 22026313.567 10 0 60190 13500.00000 0 11431990.933 -8989605.190 20957030.582 10 0 60190 14400.00000 0 13914868.909 -8788465.399 19480779.524 10 0 60190 15300.00000 0 16201408.900 -8767574.324 17625916.937 10 0 60190 16200.00000 0 18234929.694 -8897576.260 15428213.405 10 0 60190 17100.00000 0 19966992.892 -9139919.621 12930180.032 10 0 60190 18000.00000 0 21359252.472 -9448644.616 10180257.382 10 0 60190 18900.00000 0 22384897.617 -9772502.982 7231881.289 10 0 60190 19800.00000 0 23029626.486 -10057320.204 4142442.996 10 0 60190 20700.00000 0 23292108.184 -10248499.383 972163.988 10 0 60190 21600.00000 0 23183911.985 -10293559.036 -2217091.740 10 0 60190 22500.00000 0 22728905.830 -10144594.958 -5363043.316 10 0 60190 23400.00000 0 21962149.175 -9760558.976 -8404230.563 10 0 60190 24300.00000 0 20928327.474 -9109255.079 -11281237.034 10 0 60190 25200.00000 0 19679795.629 -8168965.527 -13937872.228 10 0 60190 26100.00000 0 18274314.856 -6929635.611 -16322287.646 10 0 60190 27000.00000 0 16772580.676 -5393565.120 -18388003.009 10 0 60190 27900.00000 0 15235648.532 -3575576.089 -20094821.320 10 0 60190 28800.00000 0 13722367.561 -1502649.249 -21409614.143 10 0 60190 29700.00000 0 12286932.096 786955.370 -22306961.772 10 0 60190 30600.00000 0 10976654.659 3245056.192 -22769636.399 10 0 60190 31500.00000 0 9830054.053 5815328.332 -22788919.967 10 0 60190 32400.00000 0 8875337.910 8435426.964 -22364752.059 10 0 60190 33300.00000 0 8129341.669 11039366.289 -21505706.724 10 0 60190 34200.00000 0 7596966.158 13560054.292 -20228800.570 10 0 60190 35100.00000 0 7271134.549 15931877.642 -18559137.721 10 0 60190 36000.00000 0 7133267.479 18093229.594 -16529400.201 10 0 60190 36900.00000 0 7154253.455 19988876.693 -14179195.099 10 0 60190 37800.00000 0 7295871.133 21572067.453 -11554272.338 10 0 60190 38700.00000 0 7512601.526 22806297.246 -8705628.963 10 0 60190 39600.00000 0 7753752.425 23666658.291 -5688517.777 10 0 60190 40500.00000 0 7965804.766 24140720.970 -2561379.579 10 0 60190 41400.00000 0 8094882.038 24228912.193 615280.645 10 0 60190 42300.00000 0 8089239.119 23944377.160 3780052.439 10 0 60190 43200.00000 0 7901666.620 23312332.053 6871792.049 10 0 60190 44100.00000 0 7491710.556 22368935.825 9830786.646 10 0 60190 45000.00000 0 6827615.015 21159728.691 12599889.475 10 0 60190 45900.00000 0 5887906.978 19737702.361 15125605.619 10 0 60190 46800.00000 0 4662557.037 18161081.765 17359109.036 10 0 60190 47700.00000 0 3153667.091 16490909.539 19257172.743 10 0 60190 48600.00000 0 1375655.143 14788532.433 20782995.606 10 0 60190 49500.00000 0 -645072.313 13113092.641 21906910.828 10 0 60190 50400.00000 0 -2870949.113 11519127.016 22606963.089 10 0 60190 51300.00000 0 -5254547.941 10054372.840 22869343.325 10 0 60190 52200.00000 0 -7740297.818 8757870.712 22688672.330 10 0 60190 53100.00000 0 -10266552.463 7658443.357 22068126.615 10 0 60190 54000.00000 0 -12767926.675 6773614.125 21019402.579 10 0 60190 54900.00000 0 -15177806.177 6109011.216 19562517.621 10 0 60190 55800.00000 0 -17430928.391 5658283.869 17725449.758 10 0 60190 56700.00000 0 -19465927.666 5403535.588 15543620.338 10 0 60190 57600.00000 0 -21227738.958 5316257.763 13059227.593 10 0 60190 58500.00000 0 -22669758.753 5358725.773 10320442.027 10 0 60190 59400.00000 0 -23755671.386 5485799.576 7380477.905 10 0 60190 60300.00000 0 -24460862.277 5647052.961 4296558.130 10 0 60190 61200.00000 0 -24773356.614 5789140.836 1128792.756 10 0 60190 62100.00000 0 -24694242.065 5858302.956 -2061006.247 10 0 60190 63000.00000 0 -24237556.167 5802895.889 -5210549.380 10 0 60190 63900.00000 0 -23429642.241 5575843.256 -8258307.238 10 0 60190 64800.00000 0 -22308000.877 5136897.432 -11144734.895 10 0 60190 65700.00000 0 -20919686.100 4454613.897 -13813456.725 10 0 60190 66600.00000 0 -19319315.243 3507951.928 -16212386.266 10 0 60190 67500.00000 0 -17566778.292 2287431.704 -18294757.342 10 0 60190 68400.00000 0 -15724745.305 795797.344 -20020045.005 10 0 60190 69300.00000 0 -13856078.879 -951842.972 -21354757.528 10 0 60190 70200.00000 0 -12021262.139 -2928405.868 -22273083.993 10 0 60190 71100.00000 0 -10275951.354 -5095733.929 -22757385.364 10 0 60190 72000.00000 0 -8668756.204 -7405970.515 -22798520.610 10 0 60190 72900.00000 0 -7239340.177 -9803349.643 -22396003.004 10 0 60190 73800.00000 0 -6016919.268 -12226325.089 -21557985.352 10 0 60190 74700.00000 0 -5019219.663 -14609948.948 -20301076.308 10 0 60190 75600.00000 0 -4251935.286 -16888399.969 -18649993.203 10 0 60190 76500.00000 0 -3708704.760 -18997556.329 -16637059.815 10 0 60190 77400.00000 0 -3371605.521 -20877506.158 -14301560.316 10 0 60190 78300.00000 0 -3212141.219 -22474892.354 -11688963.062 10 0 60190 79200.00000 0 -3192678.262 -23744995.611 -8850030.082 10 0 60190 80100.00000 0 -3268268.980 -24653470.745 -5839829.985 10 0 60190 81000.00000 0 -3388783.274 -25177666.157 -2716673.478 10 0 60190 81900.00000 0 -3501258.303 -25307473.587 459008.218 10 0 60190 82800.00000 0 -3552367.222 -25045674.724 3625820.894 10 0 60190 83700.00000 0 -3490903.505 -24407771.961 6722579.431 10 0 60190 84600.00000 0 -3270177.122 -23421311.520 9689472.964 10 0 60190 85500.00000 0 -2850222.757 -22124727.814 12469201.993 99